Weather History for Pine Ridge, SD

Change the Weather History Date:

Sunday, September 2, 2012

  Actual Average Record
Temperature  
Mean Temperature 78 °F 67 °F  
Max Temperature 90 °F 84 °F 99 °F (2001)
Min Temperature 65 °F 50 °F 35 °F (2006)
Degree Days  
Heating Degree Days 0 3  
Month to date heating degree days 0 5  
Since 1 July heating degree days 10 42  
Cooling Degree Days 13 5  
Month to date cooling degree days 35 10  
Year to date cooling degree days 1058 658  
Growing Degree Days 28 (Base 50)    
Moisture  
Dew Point 41 °F    
Average Humidity 27    
Maximum Humidity 40    
Minimum Humidity 13    
Precipitation  
Precipitation 0.00 in 0.06 in 1.14 in (1999)
Month to date precipitation T 0.11  
Year to date precipitation 8.96 13.90  
Sea Level Pressure  
Sea Level Pressure 29.86 in    
Wind  
Wind Speed 8 mph (West)    
Max Wind Speed 24 mph    
Max Gust Speed 33 mph    
Visibility 10 miles    
Events      
T = Trace of Precipitation, MM = Missing Value Source: NWS Daily Summary

Daily Weather History Graph

Daily Weather History Graph

Search for Another Location

Airport:

Trip Planner

Search our weather history database for the weather conditions in past years. The results will help you decide how hot, cold, wet, or windy it might be!

Date:

Astronomy

Sep. 02, 2012 Rise Set
Actual Time 6:16 AM MDT 7:22 PM MDT
Civil Twilight 5:47 AM MDT 7:51 PM MDT
Nautical Twilight 5:12 AM MDT 8:25 PM MDT
Astronomical Twilight 4:35 AM MDT 9:02 PM MDT
Moon 8:04 PM MDT (9/2) 8:32 AM MDT (9/2)
Length of Visible Light 14h 04m
Length of Day
13h 05m
Waning Gibbous, 95% of the Moon is Illuminated
Sep 2
Waning Gibbous
Sep 8
Last Quarter
Sep 15
New
Sep 22
First Quarter
Sep 29
Full

Hourly Weather History & Observations

Time (MDT) Temp. Dew Point Humidity Pressure Visibility Wind Dir Wind Speed Gust Speed Precip Events Conditions
12:52 AM 81.0 °F 46.0 °F 29% 29.81 in 10.0 mi WSW 5.8 mph - 0.00 in   Partly Cloudy
1:52 AM 73.9 °F 46.0 °F 37% 29.80 in 10.0 mi Calm Calm - N/A   Clear
2:52 AM 73.0 °F 45.0 °F 37% 29.79 in 10.0 mi Calm Calm - N/A   Scattered Clouds
3:52 AM 75.9 °F 43.0 °F 31% 29.78 in 10.0 mi WSW 5.8 mph - N/A   Partly Cloudy
4:52 AM 73.0 °F 45.0 °F 37% 29.80 in 10.0 mi West 6.9 mph - N/A   Clear
5:52 AM 73.0 °F 45.0 °F 37% 29.83 in 10.0 mi West 6.9 mph - N/A   Clear
7:52 AM 75.9 °F 45.0 °F 33% 29.88 in 10.0 mi West 15.0 mph 21.9 mph N/A   Clear
8:52 AM 78.1 °F 45.0 °F 31% 29.88 in 10.0 mi West 20.7 mph 29.9 mph N/A   Clear
9:52 AM 80.1 °F 44.1 °F 28% 29.91 in 10.0 mi WNW 18.4 mph 25.3 mph N/A   Clear
10:52 AM 82.0 °F 45.0 °F 27% 29.91 in 10.0 mi North 15.0 mph 21.9 mph N/A   Clear
11:52 AM 84.9 °F 44.1 °F 24% 29.91 in 10.0 mi North 10.4 mph - N/A   Clear
12:52 PM 86.0 °F 43.0 °F 22% 29.89 in 10.0 mi North 8.1 mph - N/A   Clear
1:52 PM 87.1 °F 41.0 °F 20% 29.88 in 10.0 mi Variable 3.5 mph - N/A   Clear
2:52 PM 88.0 °F 41.0 °F 19% 29.87 in 10.0 mi Variable 4.6 mph - N/A   Clear
3:52 PM 88.0 °F 39.9 °F 18% 29.86 in 10.0 mi WSW 4.6 mph - N/A   Clear
4:52 PM 89.1 °F 32.0 °F 13% 29.86 in 10.0 mi West 6.9 mph - N/A   Clear
5:52 PM 87.1 °F 30.0 °F 13% 29.86 in 10.0 mi West 8.1 mph - N/A   Clear
6:52 PM 84.9 °F 34.0 °F 16% 29.85 in 10.0 mi WNW 3.5 mph - N/A   Clear
7:52 PM 73.0 °F 36.0 °F 26% 29.88 in 10.0 mi ESE 5.8 mph - N/A   Clear
8:52 PM 70.0 °F 35.1 °F 28% 29.89 in 10.0 mi ENE 4.6 mph - N/A   Clear
10:52 PM 66.0 °F 41.0 °F 40% 29.89 in 10.0 mi Calm Calm - N/A   Clear
11:52 PM 77.0 °F 44.1 °F 31% 29.86 in 10.0 mi SE 15.0 mph 23.0 mph N/A   Clear